date,time,DOY,Ta_1_1_1,RH_1_1_1,LWin_1_1_1,LWout_1_1_1,SWin_1_1_1,SWout_1_1_1,PPFD_1_1_1,SWC_1_1_1,Ts_1_1_1
[yyyy-mm-dd],[HH:MM],[ddd.ddd],[K],[%],[W+1m-2],[W+1m-2],[W+1m-2],[W+1m-2],[µmol+1m-2s-1],[m+3m-3],[K]
2013-07-23,00:30,204.020,286.44600000000003,83.359666666666683,-8.8353333333333310,-9999.0,0.85533333333333339,-4.2746666666666666,6.66666666666666644E-004,-9999.0,273.15999999999991
2013-07-23,01:00,204.041,286.44633333333331,81.580666666666673,-8.7536666666666658,-9999.0,0.77133333333333320,-4.1090000000000000,0.0000000000000000,-9999.0,273.15999999999991
2013-07-23,01:30,204.062,286.10766666666666,82.107333333333315,-7.8910000000000000,-9999.0,0.71733333333333327,-3.9363333333333332,0.0000000000000000,-9999.0,273.15999999999991
2013-07-23,02:00,204.083,285.64566666666673,84.444999999999979,-8.2129999999999992,-9999.0,0.55599999999999994,-4.2180000000000000,0.0000000000000000,-9999.0,273.15999999999991
2013-07-23,02:30,204.104,285.35633333333334,86.552333333333337,-7.9013333333333309,-9999.0,0.72833333333333328,-3.9916666666666658,3.33333333333333322E-004,-9999.0,273.15999999999991
2013-07-23,03:00,204.124,285.32166666666660,87.937666666666658,-7.3223333333333338,-9999.0,0.71966666666666679,-3.6419999999999999,0.0000000000000000,-9999.0,273.15999999999991
2013-07-23,03:30,204.145,284.94333333333338,86.719000000000008,-7.6966666666666681,-9999.0,0.60599999999999998,-4.1413333333333338,0.0000000000000000,-9999.0,273.15999999999991
2013-07-23,04:00,204.166,284.54633333333339,78.844000000000008,-7.6060000000000008,-9999.0,0.53400000000000014,-4.1970000000000001,3.70000000000000051E-002,-9999.0,273.15999999999991
2013-07-23,04:30,204.187,284.18866666666668,77.954000000000008,-6.9833333333333325,-9999.0,0.66266666666666674,-2.0306666666666668,2.9963333333333337,-9999.0,273.15999999999991
2013-07-23,05:00,204.208,283.74866666666668,78.975666666666683,-7.7540000000000004,-9999.0,6.0550000000000006,19.390333333333334,38.432666666666670,-9999.0,273.15999999999991
2013-07-23,05:30,204.229,283.36866666666657,80.458333333333329,-8.0003333333333355,-9999.0,9.4743333333333322,48.911333333333339,99.318333333333328,-9999.0,273.15999999999991
2013-07-23,06:00,204.249,283.30266666666665,81.157666666666671,-6.2076666666666682,-9999.0,7.3929999999999998,44.515999999999984,90.160333333333327,-9999.0,273.15999999999991
2013-07-23,06:30,204.270,283.82799999999992,79.421999999999997,-5.9280000000000008,-9999.0,11.268666666666666,65.560333333333318,130.66866666666667,-9999.0,273.15999999999991
2013-07-23,07:00,204.291,284.20366666666672,77.230999999999980,-5.6296666666666670,-9999.0,16.525666666666666,96.814333333333309,192.76566666666665,-9999.0,273.15999999999991
2013-07-23,07:30,204.312,284.32166666666672,76.651666666666671,-5.7103333333333346,-9999.0,20.290333333333333,118.78700000000001,237.44000000000003,-9999.0,273.15999999999991
2013-07-23,08:00,204.333,284.96133333333341,72.773000000000010,-5.4113333333333316,-9999.0,64.970666666666673,393.95166666666660,762.01233333333334,-9999.0,273.15999999999991
2013-07-23,08:30,204.354,285.04633333333339,71.805999999999997,-5.6086666666666662,-9999.0,38.665666666666667,226.55366666666666,448.17033333333330,-9999.0,273.15999999999991
2013-07-23,09:00,204.374,285.50233333333341,69.552000000000007,-4.6796666666666660,-9999.0,73.344999999999999,422.84933333333328,813.17699999999991,-9999.0,273.15999999999991
2013-07-23,09:30,204.395,285.46033333333344,69.200000000000003,-5.6696666666666671,-9999.0,55.959666666666664,332.12266666666659,643.87933333333342,-9999.0,273.15999999999991
2013-07-23,10:00,204.416,285.71466666666669,69.603333333333325,-5.5616666666666674,-9999.0,61.728333333333325,364.18699999999995,719.30733333333353,-9999.0,273.15999999999991
2013-07-23,10:30,204.437,285.55100000000004,71.256666666666646,-5.0076666666666663,-9999.0,68.213666666666683,398.52400000000000,795.25099999999986,-9999.0,273.15999999999991
2013-07-23,11:00,204.458,286.07266666666669,66.641999999999996,-4.3056666666666672,-9999.0,112.40866666666670,682.47833333333335,1351.7293333333332,-9999.0,273.15999999999991
2013-07-23,11:30,204.479,286.53233333333333,61.967999999999989,-2.8649999999999998,-9999.0,128.17000000000002,780.38533333333351,1537.6556666666670,-9999.0,273.15999999999991
2013-07-23,12:00,204.499,286.74033333333335,62.018666666666675,-3.2116666666666664,-9999.0,138.18933333333331,847.66133333333335,1678.2136666666663,-9999.0,273.15999999999991
2013-07-23,12:30,204.520,286.81833333333333,60.494666666666681,-4.4406896551724140,-9999.0,107.55066666666669,661.35299999999984,1307.7233333333336,-9999.0,273.15999999999991
2013-07-23,13:00,204.541,287.10266666666678,58.876333333333335,-4.1093333333333337,-9999.0,116.60033333333337,717.50333333333333,1437.9079999999994,-9999.0,273.15999999999991
2013-07-23,13:30,204.562,287.33700000000005,57.501999999999995,-3.3516666666666670,-9999.0,129.14000000000001,795.66233333333332,1601.9720000000000,-9999.0,273.15999999999991
2013-07-23,14:00,204.583,287.54100000000000,56.452333333333328,-3.2882142857142860,-9999.0,129.57033333333334,788.09999999999991,1590.3876666666663,-9999.0,273.15999999999991
2013-07-23,14:30,204.604,287.72333333333336,55.839999999999996,-3.7844827586206895,-9999.0,125.43833333333332,751.73633333333339,1514.7156666666669,-9999.0,273.15999999999991
2013-07-23,15:00,204.624,288.36266666666666,53.076666666666682,-4.2706666666666671,-9999.0,130.75600000000003,764.87766666666653,1537.4653333333335,-9999.0,273.15999999999991
2013-07-23,15:30,204.645,288.58466666666669,51.643999999999998,-5.0906666666666665,-9999.0,124.98733333333335,721.83333333333337,1447.6570000000004,-9999.0,273.15999999999991
2013-07-23,16:00,204.666,288.87666666666672,51.503666666666668,-6.2944827586206884,-9999.0,105.68566666666672,596.22633333333317,1205.5686666666666,-9999.0,273.15999999999991
2013-07-23,16:30,204.687,289.11800000000005,51.905999999999999,-8.5680000000000014,-9999.0,93.375999999999976,520.19999999999982,1054.0546666666667,-9999.0,273.15999999999991
2013-07-23,17:00,204.708,289.09166666666664,52.540666666666667,-8.7883333333333322,-9999.0,81.938666666666649,445.22933333333339,896.47933333333333,-9999.0,273.15999999999991
2013-07-23,17:30,204.729,289.15333333333336,53.715333333333326,-9999.0,-9999.0,67.898666666666657,353.91266666666667,712.28833333333330,-9999.0,273.15999999999991
2013-07-23,18:00,204.749,289.11366666666675,54.409666666666659,-9999.0,-9999.0,54.633666666666677,263.23300000000000,525.86499999999990,-9999.0,273.15999999999991
2013-07-23,18:30,204.770,288.95466666666664,55.363333333333337,-9999.0,-9999.0,41.177666666666667,180.05633333333333,356.23433333333338,-9999.0,273.15999999999991
2013-07-23,19:00,204.791,288.55733333333330,57.489999999999995,-9999.0,-9999.0,25.671666666666663,93.891333333333307,188.69499999999996,-9999.0,273.15999999999991
2013-07-23,19:30,204.812,287.95699999999999,61.157333333333327,-9999.0,-9999.0,8.3326666666666647,24.996999999999993,61.201333333333331,-9999.0,273.15999999999991
2013-07-23,20:00,204.833,287.39233333333334,63.725666666666683,-9999.0,-9999.0,1.1433333333333333,-1.7703333333333329,7.1546666666666683,-9999.0,273.15999999999991
2013-07-23,20:30,204.854,287.12166666666673,65.155999999999992,-9999.0,-9999.0,0.77166666666666661,-4.4276666666666671,0.14366666666666666,-9999.0,273.15999999999991
2013-07-23,21:00,204.874,286.96033333333332,68.837333333333333,-9999.0,-9999.0,0.71699999999999997,-4.3183333333333325,0.0000000000000000,-9999.0,273.15999999999991
2013-07-23,21:30,204.895,286.47400000000005,69.741333333333344,-9999.0,-9999.0,0.62866666666666648,-4.5776666666666683,0.0000000000000000,-9999.0,273.15999999999991
2013-07-23,22:00,204.916,286.22600000000000,69.117333333333320,-9999.0,-9999.0,0.84566666666666657,-4.2016666666666671,3.33333333333333322E-004,-9999.0,273.15999999999991
2013-07-23,22:30,204.937,286.20900000000006,69.502999999999986,-9999.0,-9999.0,0.85466666666666669,-4.1406666666666672,3.33333333333333322E-004,-9999.0,273.15999999999991
2013-07-23,23:00,204.958,286.17899999999997,69.779666666666671,-9999.0,-9999.0,0.76200000000000001,-4.2073333333333336,0.0000000000000000,-9999.0,273.15999999999991
2013-07-23,23:30,204.979,286.04000000000002,68.830333333333343,-9999.0,-9999.0,0.74199999999999966,-4.4116666666666662,0.0000000000000000,-9999.0,273.15999999999991
2013-07-24,00:00,205.000,285.67200000000008,71.271999999999977,-9999.0,-9999.0,0.65766666666666673,-4.3430000000000000,0.0000000000000000,-9999.0,273.15999999999991
